Home > Weather > Salinas > Past weeks

Flag for USA Past Weather in Salinas, California, USA — Yesterday and Last 2 Weeks

Now
55 °F

Low clouds.


Feels Like: 55 °F
Forecast: 55 / 77 °F
Wind: No wind

Location: Salinas Municipal Airport

Current Time: Jul 27, 2016 at 8:35:11 AM

Latest Report: Jul 27, 2016 at 7:53 AM


Visibility: 7 mi

Pressure: 29.94 "Hg

Humidity: 90%

Dew Point: 52 °F

Location of SalinasLocation

Past Weather in Salinas — Graph

°F

Salinas Temperature Yesterday

Maximum temperature yesterday: 73 °F (at 11:53 AM)
Minimum temperature yesterday: 54 °F (at 12:53 AM)
Average temperature yesterday: 61 °F

High & Low Weather Summary for the Past Weeks

 TemperatureHumidityPressure
High75 °F (Jul 23, 11:53 AM)97% (Jul 14, 4:53 AM)30.14 "Hg (Jul 14, 4:53 AM)
Low52 °F (Jul 24, 5:53 AM)45% (Jul 23, 11:53 AM)29.88 "Hg (Jul 24, 4:53 AM)
Average61 °F74%30.01 "Hg
* Reported Jul 12 6:53 AM — Jul 27 6:53 AM, Salinas, Weather by CustomWeather, © 2016

Note: Actual official high and low records may vary slightly from our data, if they occured in-between our weather recording intervals... More about our weather records

Advertising

Salinas Weather History for the Previous 24 Hours

Scroll right to see more
 ConditionsComfort  
Time TempWeatherWind HumidityBarometerVisibility
6:53 AM
Wed, Jul 27
53 °FPassing clouds.No wind93%29.94 "Hg8 mi
5:56 AM53 °FFog.No wind93%29.90 "Hg3 mi
4:53 AM53 °FFog.No wind93%29.92 "Hg1 mi
3:53 AM54 °FLow clouds.No wind90%29.92 "Hg9 mi
2:53 AM54 °FLow clouds.No wind90%29.92 "Hg8 mi
1:53 AM53 °FLow clouds.No wind93%29.93 "Hg10 mi
12:53 AM54 °FLow clouds.6 mph90%29.92 "Hg10 mi
11:53 PM
Tue, Jul 26
54 °FLow clouds.3 mph90%29.92 "Hg10 mi
10:53 PM54 °FFog.8 mph93%29.93 "Hg6 mi
9:53 PM55 °FPassing clouds.9 mph90%29.92 "Hg9 mi
8:53 PM56 °FPassing clouds.9 mph87%29.91 "Hg10 mi
7:53 PM59 °FSunny.13 mph78%29.90 "Hg10 mi
6:53 PM65 °FSunny.14 mph66%29.89 "Hg10 mi
5:53 PM68 °FSunny.13 mph59%29.88 "Hg10 mi
4:53 PM68 °FSunny.13 mph59%29.89 "Hg10 mi
3:53 PM68 °FSunny.15 mph59%29.90 "Hg10 mi
2:53 PM69 °FSunny.16 mph57%29.92 "Hg10 mi
1:53 PM72 °FSunny.16 mph52%29.92 "Hg6 mi
12:53 PM73 °FSunny.13 mph50%29.92 "Hg3 mi
12:00 PM73 °FSunny.12 mph51%29.91 "Hg2 mi
11:53 AM73 °FSunny.10 mph51%29.94 "Hg3 mi
10:53 AM70 °FSunny.7 mph57%29.96 "Hg6 mi
9:53 AM65 °FSunny.3 mph68%29.96 "Hg6 mi
8:53 AM58 °FSunny.3 mph84%29.96 "Hg5 mi
Weather by CustomWeather, © 2016

See weather overviewHow to use our weather pages